Weather History for KMGY - March, 2014

Change the Weather History Date:

Saturday, March 29, 2014

  Actual Average (KFFO) Record (KFFO)
Temperature  
Mean Temperature 36 °F -  
Max Temperature 39 °F 55 °F 78 °F (1998)
Min Temperature 34 °F 34 °F 20 °F (2015)
Degree Days  
Heating Degree Days 28    
Moisture  
Dew Point 34 °F    
Average Humidity 89    
Maximum Humidity 97    
Minimum Humidity 78    
Precipitation  
Precipitation 1.24 in - - ()
Sea Level Pressure  
Sea Level Pressure 29.98 in    
Wind  
Wind Speed 14 mph (North)    
Max Wind Speed 21 mph    
Max Gust Speed 31 mph    
Visibility 5 miles    
Events Rain , Snow    
Averages and records for this station are not official NWS values.
T = Trace of Precipitation, MM = Missing Value Source: NWS Daily Summary

Daily Weather History Graph

Daily Weather History Graph

Search for Another Location

Airport or City:

Trip Planner

Search our weather history database for the weather conditions in past years. The results will help you decide how hot, cold, wet, or windy it might be!

Date:

Astronomy

Mar. 29, 2014 Rise Set
Actual Time 7:25 AM EDT 7:57 PM EDT
Civil Twilight 6:58 AM EDT 8:25 PM EDT
Nautical Twilight 6:27 AM EDT 8:56 PM EDT
Astronomical Twilight 5:54 AM EDT 9:29 PM EDT
Moon 6:33 AM EDT (3/29) 7:02 PM EDT (3/29)
Length of Visible Light 13h 26m
Length of Day
12h 32m
Waning Crescent, 2% of the Moon is Illuminated
Mar 29
Waning Crescent
Mar 30
New
Apr 7
First Quarter
Apr 15
Full
Apr 22
Last Quarter

Hourly Weather History & Observations

Time (EDT) Temp. Windchill Dew Point Humidity Pressure Visibility Wind Dir Wind Speed Gust Speed Precip Events Conditions
12:53 AM 39.9 °F 33.4 °F 35.1 °F 83% 30.09 in 10.0 mi ENE 10.4 mph - N/A   Clear
1:53 AM 39.0 °F 31.8 °F 35.1 °F 86% 30.09 in 10.0 mi ENE 11.5 mph - N/A   Clear
2:53 AM 39.9 °F 32.9 °F 35.1 °F 83% 30.06 in 10.0 mi NE 11.5 mph - N/A   Overcast
3:53 AM 39.9 °F 32.9 °F 36.0 °F 86% 30.03 in 10.0 mi NE 11.5 mph - N/A   Overcast
4:53 AM 39.9 °F 33.4 °F 36.0 °F 86% 30.01 in 10.0 mi ENE 10.4 mph - N/A   Overcast
5:53 AM 39.9 °F 33.4 °F 36.0 °F 86% 29.98 in 10.0 mi ENE 10.4 mph - N/A   Overcast
6:53 AM 39.9 °F 30.8 °F 35.1 °F 83% 29.94 in 9.0 mi NE 18.4 mph - N/A   Overcast
7:53 AM 39.0 °F 31.0 °F 35.1 °F 86% 29.94 in 7.0 mi ENE 13.8 mph - 0.00 in Rain Light Rain
8:20 AM 39.0 °F 32.3 °F 36.0 °F 89% 29.96 in 3.0 mi North 10.4 mph - 0.06 in Rain Heavy Rain
8:34 AM 39.0 °F 32.8 °F 36.0 °F 89% 29.97 in 1.8 mi NNW 9.2 mph - 0.12 in Rain Heavy Rain
8:53 AM 37.9 °F 32.1 °F 37.0 °F 97% 30.02 in 1.5 mi NW 8.1 mph - 0.21 in Rain Heavy Rain
9:33 AM 39.0 °F 29.9 °F 37.0 °F 93% 29.97 in 2.0 mi North 17.3 mph - 0.17 in Rain Rain
9:53 AM 39.0 °F 29.6 °F 37.0 °F 93% 29.97 in 2.0 mi North 18.4 mph 25.3 mph 0.24 in Rain Rain
10:01 AM 39.0 °F 30.3 °F 37.0 °F 93% 29.95 in 1.8 mi North 16.1 mph 25.3 mph 0.03 in Rain Rain
10:53 AM 39.0 °F 30.6 °F 37.0 °F 93% 29.97 in 2.0 mi North 15.0 mph 24.2 mph 0.31 in Rain Rain
11:53 AM 39.0 °F 29.9 °F 37.0 °F 93% 29.96 in 2.5 mi NNE 17.3 mph - 0.15 in Rain Rain
12:04 PM 39.0 °F 30.3 °F 37.9 °F 96% 29.93 in 3.0 mi North 16.1 mph - 0.02 in Rain Light Rain
12:21 PM 37.9 °F 28.9 °F 37.0 °F 97% 29.94 in 2.5 mi North 16.1 mph - 0.04 in Rain Rain
12:53 PM 37.9 °F 30.5 °F 36.0 °F 93% 29.95 in 3.0 mi North 11.5 mph 25.3 mph 0.10 in Rain Light Rain
1:51 PM 35.6 °F 26.2 °F 33.8 °F 93% 29.93 in 2.0 mi North 15.0 mph 21.9 mph 0.08 in Snow Light Snow
1:53 PM 35.1 °F 25.9 °F 33.1 °F 92% 29.95 in 2.0 mi North 13.8 mph 21.9 mph 0.08 in Snow Light Snow
2:00 PM 34.0 °F 24.6 °F 33.1 °F 96% 29.92 in 1.8 mi North 13.8 mph - 0.01 in Snow Light Snow
2:11 PM 34.0 °F 23.8 °F 33.1 °F 96% 29.92 in 2.0 mi North 16.1 mph - 0.03 in Snow Light Snow
2:31 PM 34.0 °F 22.7 °F 33.1 °F 96% 29.91 in 3.0 mi NNE 19.6 mph 24.2 mph 0.05 in Rain Light Rain
2:53 PM 34.0 °F 22.7 °F 33.1 °F 96% 29.93 in 4.0 mi NNE 19.6 mph 25.3 mph 0.07 in Rain Light Rain
3:08 PM 35.1 °F 25.2 °F 33.1 °F 92% 29.90 in 5.0 mi NNE 16.1 mph 24.2 mph 0.02 in Rain Light Rain
3:18 PM 35.1 °F 25.9 °F 33.1 °F 92% 29.89 in 5.0 mi NNE 13.8 mph - 0.02 in Snow Light Snow
3:53 PM 35.1 °F 25.9 °F 34.0 °F 96% 29.91 in 4.0 mi North 13.8 mph 23.0 mph 0.05 in Rain Light Rain
4:31 PM 35.1 °F 25.5 °F 34.0 °F 96% 29.91 in 4.0 mi North 15.0 mph - 0.02 in Rain Light Rain
4:53 PM 35.1 °F 24.5 °F 33.1 °F 92% 29.95 in 2.0 mi NNW 18.4 mph - 0.03 in Snow Light Snow
5:14 PM 34.0 °F 22.7 °F 32.0 °F 92% 29.94 in 3.0 mi NNW 19.6 mph 26.5 mph 0.00 in Snow Light Snow
5:32 PM 34.0 °F 23.0 °F 33.1 °F 96% 29.94 in 2.5 mi NNW 18.4 mph 26.5 mph 0.00 in Snow Light Snow
5:42 PM 35.1 °F 24.5 °F 32.0 °F 89% 29.95 in 4.0 mi North 18.4 mph 31.1 mph 0.00 in   Overcast
5:53 PM 35.1 °F 23.8 °F 32.0 °F 89% 29.97 in 8.0 mi North 20.7 mph 28.8 mph 0.00 in   Overcast
6:53 PM 35.1 °F 25.2 °F 32.0 °F 89% 30.00 in 10.0 mi North 16.1 mph 25.3 mph N/A   Overcast
7:40 PM 35.1 °F 24.1 °F 30.9 °F 85% 30.01 in 9.0 mi North 19.6 mph 28.8 mph N/A   Overcast
7:53 PM 35.1 °F 25.9 °F 30.9 °F 85% 30.04 in 9.0 mi North 13.8 mph 26.5 mph N/A   Overcast
8:44 PM 36.0 °F 26.3 °F 30.9 °F 82% 30.04 in 8.0 mi North 16.1 mph 28.8 mph N/A   Overcast
8:53 PM 36.0 °F 26.7 °F 32.0 °F 86% 30.06 in 7.0 mi NNW 15.0 mph 25.3 mph N/A   Overcast
9:14 PM 36.0 °F 25.0 °F 30.9 °F 82% 30.05 in 8.0 mi North 20.7 mph 28.8 mph N/A   Overcast
9:48 PM 35.6 °F 25.2 °F 30.2 °F 81% 30.07 in 8.0 mi North 18.4 mph 26.5 mph N/A   Overcast
9:53 PM 36.0 °F 27.5 °F 30.9 °F 82% 30.09 in 8.0 mi North 12.7 mph 26.5 mph N/A   Overcast
10:53 PM 36.0 °F 27.5 °F 30.0 °F 79% 30.10 in 9.0 mi NNW 12.7 mph 24.2 mph N/A   Overcast
11:53 PM 35.1 °F 25.5 °F 28.9 °F 78% 30.12 in 10.0 mi NNW 15.0 mph 24.2 mph N/A   Overcast